Weather History for Auburn-Lewiston, ME

Change the Weather History Date:

Tuesday, March 4, 2014

  Actual Average Record
Temperature  
Mean Temperature 10 °F -  
Max Temperature 26 °F 33 °F 53 °F (2008)
Min Temperature -7 °F 17 °F -11 °F (2003)
Degree Days  
Heating Degree Days 56    
Moisture  
Dew Point -7 °F    
Average Humidity 46    
Maximum Humidity 100    
Minimum Humidity 19    
Precipitation  
Precipitation 0.00 in - - ()
Sea Level Pressure  
Sea Level Pressure 30.26 in    
Wind  
Wind Speed 2 mph (West)    
Max Wind Speed 12 mph    
Max Gust Speed -    
Visibility 10 miles    
Events      
Averages and records for this station are not official NWS values.
T = Trace of Precipitation, MM = Missing Value Source: NWS Daily Summary

Daily Weather History Graph

Daily Weather History Graph

Search for Another Location

Airport:

Trip Planner

Search our weather history database for the weather conditions in past years. The results will help you decide how hot, cold, wet, or windy it might be!

Date:

Astronomy

Mar. 04, 2014 Rise Set
Actual Time 6:12 AM EST 5:33 PM EST
Civil Twilight 5:44 AM EST 6:02 PM EST
Nautical Twilight 5:10 AM EST 6:35 PM EST
Astronomical Twilight 4:37 AM EST 7:09 PM EST
Moon 7:48 AM EST (3/4) 9:47 PM EST (3/4)
Length of Visible Light 12h 18m
Length of Day
11h 20m
Waxing Crescent, 14% of the Moon is Illuminated
Mar 4
Waxing Crescent
Mar 8
First Quarter
Mar 16
Full
Mar 23
Last Quarter
Mar 30
New

Hourly Weather History & Observations

Time (EST) Temp. Windchill Dew Point Humidity Pressure Visibility Wind Dir Wind Speed Gust Speed Precip Events Conditions
12:15 AM 1.4 °F - -14.8 °F 47% 30.25 in 10.0 mi Calm Calm - N/A   Clear
12:35 AM -0.4 °F - -9.4 °F 66% 30.26 in 10.0 mi Calm Calm - N/A   Clear
12:55 AM -0.4 °F - -14.8 °F 51% 30.26 in 10.0 mi Calm Calm - N/A   Clear
1:15 AM -0.4 °F - -11.2 °F 60% 30.26 in 10.0 mi Calm Calm - N/A   Clear
1:35 AM -2.2 °F - -14.8 °F 55% 30.26 in 10.0 mi Calm Calm - N/A   Clear
1:55 AM -2.2 °F - -7.6 °F 78% 30.27 in 10.0 mi Calm Calm - N/A   Clear
2:15 AM -4.0 °F - -18.4 °F 50% 30.27 in 10.0 mi Calm Calm - N/A   Clear
2:35 AM -2.2 °F - -2.2 °F 100% 30.26 in 10.0 mi Calm Calm - N/A   Clear
2:55 AM -4.0 °F - -23.8 °F 38% 30.27 in 10.0 mi Calm Calm - N/A   Clear
3:15 AM -4.0 °F - -5.8 °F 92% 30.27 in 10.0 mi Calm Calm - N/A   Clear
3:35 AM -2.2 °F - -20.2 °F 42% 30.28 in 10.0 mi Calm Calm - N/A   Clear
3:55 AM -4.0 °F -12.4 °F -9.4 °F 78% 30.28 in 10.0 mi South 3.5 mph - N/A   Clear
4:15 AM -5.8 °F - -18.4 °F 55% 30.29 in 10.0 mi Calm Calm - N/A   Clear
4:35 AM -5.8 °F - -9.4 °F 84% 30.29 in 10.0 mi Calm Calm - N/A   Clear
4:55 AM -5.8 °F - -20.2 °F 50% 30.29 in 10.0 mi Calm Calm - N/A   Clear
5:15 AM -7.6 °F - -14.8 °F 71% 30.29 in 10.0 mi Calm Calm - N/A   Clear
5:35 AM -7.6 °F - -14.8 °F 71% 30.29 in 10.0 mi Calm Calm - N/A   Clear
5:55 AM -7.6 °F - -14.8 °F 71% 30.29 in 10.0 mi Calm Calm - N/A   Clear
6:15 AM -7.6 °F - -16.6 °F 65% 30.29 in 10.0 mi Calm Calm - N/A   Clear
6:35 AM -7.6 °F - -14.8 °F 71% 30.30 in 10.0 mi Calm Calm - N/A   Clear
6:55 AM -7.6 °F - -14.8 °F 71% 30.30 in 10.0 mi Calm Calm - N/A   Clear
7:15 AM -5.8 °F - -18.4 °F 55% 30.31 in 10.0 mi Calm Calm - N/A   Clear
7:35 AM -4.0 °F - -9.4 °F 78% 30.32 in 10.0 mi Calm Calm - N/A   Clear
7:55 AM -2.2 °F - -18.4 °F 46% 30.32 in 10.0 mi Calm Calm - N/A   Clear
8:15 AM -0.4 °F - -5.8 °F 78% 30.32 in 10.0 mi Calm Calm - N/A   Clear
8:35 AM 3.2 °F - -16.6 °F 39% 30.31 in 10.0 mi Calm Calm - N/A   Clear
8:55 AM 5.0 °F - -9.4 °F 52% 30.32 in 10.0 mi Calm Calm - N/A   Clear
9:15 AM 8.6 °F - -14.8 °F 34% 30.32 in 10.0 mi Calm Calm - N/A   Clear
9:35 AM 8.6 °F - -14.8 °F 34% 30.32 in 10.0 mi Calm Calm - N/A   Clear
9:55 AM 10.4 °F - - N/A% 30.32 in 10.0 mi Calm Calm - N/A   Clear
10:15 AM 15.8 °F - -11.2 °F 30% 30.31 in 10.0 mi Calm Calm - N/A   Clear
10:35 AM 15.8 °F - -11.2 °F 30% 30.31 in 10.0 mi Calm Calm - N/A   Clear
10:55 AM 17.6 °F 8.2 °F -7.6 °F 32% 30.30 in 10.0 mi South 6.9 mph - N/A   Clear
11:15 AM 17.6 °F 5.0 °F -5.8 °F 35% 30.30 in 10.0 mi South 11.5 mph - N/A   Clear
11:35 AM 19.4 °F 7.9 °F -5.8 °F 33% 30.29 in 10.0 mi SW 10.4 mph - N/A   Clear
11:55 AM 19.4 °F 7.2 °F -2.2 °F 39% 30.28 in 10.0 mi SW 11.5 mph - N/A   Clear
12:15 PM 19.4 °F 8.6 °F -4.0 °F 36% 30.27 in 10.0 mi SSW 9.2 mph - N/A   Clear
12:35 PM 21.2 °F 10.9 °F -2.2 °F 36% 30.25 in 10.0 mi South 9.2 mph - N/A   Clear
12:55 PM 21.2 °F 14.9 °F 1.4 °F 42% 30.24 in 10.0 mi South 4.6 mph - N/A   Clear
1:15 PM 23.0 °F 13.1 °F -0.4 °F 36% 30.23 in 10.0 mi SW 9.2 mph - N/A   Clear
1:35 PM 24.8 °F 14.0 °F -2.2 °F 31% 30.22 in 10.0 mi South 11.5 mph - N/A   Clear
1:55 PM 24.8 °F 17.9 °F -2.2 °F 31% 30.21 in 10.0 mi SSW 5.8 mph - N/A   Clear
2:15 PM 24.8 °F 16.9 °F 1.4 °F 36% 30.21 in 10.0 mi South 6.9 mph - N/A   Clear
2:35 PM 26.6 °F 19.1 °F -2.2 °F 29% 30.21 in 10.0 mi SSW 6.9 mph - N/A   Clear
2:55 PM 26.6 °F 20.0 °F -7.6 °F 22% 30.20 in 10.0 mi SSW 5.8 mph - N/A   Clear
3:15 PM 26.6 °F 19.1 °F -9.4 °F 21% 30.20 in 10.0 mi SSW 6.9 mph - N/A   Clear
3:35 PM 26.6 °F 22.6 °F -9.4 °F 21% 30.20 in 10.0 mi SSW 3.5 mph - N/A   Clear
3:55 PM 26.6 °F 17.5 °F -11.2 °F 19% 30.20 in 10.0 mi WSW 9.2 mph - N/A   Clear
4:15 PM 26.6 °F 19.1 °F -11.2 °F 19% 30.20 in 10.0 mi WSW 6.9 mph - N/A   Clear
4:35 PM 26.6 °F 21.2 °F -9.4 °F 21% 30.20 in 10.0 mi SW 4.6 mph - N/A   Scattered Clouds
4:55 PM 26.6 °F 20.0 °F -7.6 °F 22% 30.20 in 10.0 mi WSW 5.8 mph - N/A   Scattered Clouds
5:15 PM 26.6 °F 22.6 °F -9.4 °F 21% 30.20 in 10.0 mi WSW 3.5 mph - N/A   Mostly Cloudy
5:35 PM 26.6 °F 22.6 °F -9.4 °F 21% 30.21 in 10.0 mi WNW 3.5 mph - N/A   Overcast
5:55 PM 26.6 °F - -9.4 °F 21% 30.21 in 10.0 mi Calm Calm - N/A   Mostly Cloudy
6:15 PM 24.8 °F 19.1 °F -7.6 °F 24% 30.22 in 10.0 mi North 4.6 mph - N/A   Mostly Cloudy
6:35 PM 24.8 °F 16.1 °F -7.6 °F 24% 30.23 in 10.0 mi NNW 8.1 mph - N/A   Overcast
6:55 PM 23.0 °F 13.1 °F -4.0 °F 31% 30.24 in 10.0 mi North 9.2 mph - N/A   Overcast
7:15 PM 21.2 °F 10.1 °F -2.2 °F 36% 30.25 in 10.0 mi North 10.4 mph - N/A   Overcast
7:35 PM 21.2 °F 11.7 °F -0.4 °F 39% 30.24 in 10.0 mi NNW 8.1 mph - N/A   Overcast
7:55 PM 21.2 °F 12.6 °F 1.4 °F 42% 30.24 in 10.0 mi North 6.9 mph - N/A   Overcast
8:15 PM 21.2 °F 13.6 °F 1.4 °F 42% 30.24 in 10.0 mi NNE 5.8 mph - N/A   Overcast
8:35 PM 21.2 °F 14.9 °F -0.4 °F 39% 30.24 in 10.0 mi NNE 4.6 mph - N/A   Mostly Cloudy
8:55 PM 19.4 °F 11.5 °F 1.4 °F 46% 30.24 in 10.0 mi NNE 5.8 mph - N/A   Mostly Cloudy
9:15 PM 19.4 °F 11.5 °F 5.0 °F 54% 30.25 in 10.0 mi North 5.8 mph - N/A   Overcast
9:35 PM 19.4 °F 11.5 °F 1.4 °F 46% 30.25 in 10.0 mi North 5.8 mph - N/A   Overcast
9:55 PM 19.4 °F 12.8 °F -2.2 °F 39% 30.25 in 10.0 mi North 4.6 mph - N/A   Mostly Cloudy
10:15 PM 17.6 °F 10.7 °F 17.6 °F 100% 30.25 in 10.0 mi North 4.6 mph - N/A   Partly Cloudy
10:35 PM 17.6 °F 8.2 °F 3.2 °F 53% 30.25 in 10.0 mi North 6.9 mph - N/A   Mostly Cloudy
10:55 PM 17.6 °F 10.7 °F 1.4 °F 49% 30.25 in 10.0 mi North 4.6 mph - N/A   Mostly Cloudy
11:15 PM 17.6 °F 12.3 °F 3.2 °F 53% 30.25 in 10.0 mi North 3.5 mph - N/A   Mostly Cloudy
11:35 PM 17.6 °F 12.3 °F 3.2 °F 53% 30.25 in 10.0 mi North 3.5 mph - N/A   Mostly Cloudy
11:55 PM 17.6 °F 8.2 °F 5.0 °F 58% 30.25 in 10.0 mi North 6.9 mph - N/A   Mostly Cloudy